[[{"header":{"parameterUnit":"m.s-1","parameterCategory":1,"la1":30.2991,"la2":30.254,"lo1":-89.0895,"lo2":-89.0444,"dy":0.0017,"dx":0.0017,"nx":28,"ny":28,"refTime":"2025-05-26T21:00:00:Z","depth":0,"parameterNumber":2,"parameterNumberName":"U-component_of_WINDS"},"data":[0,0,0,0,0,0,0,0,0,0,0,0,0,0,0,0,0,0,0,0,0,0,0,0,0,0,0,0,0,0,0,0,0,0,0,0,0,0,0,0,0,0,0,0,0,0,0,0,0,0,0,0,0,0,0,0,0,0,0.9304,0.9305,0,0.9418,0.942,0.9421,0.9455,0.9455,0.9454,0.9454,0.9577,0.958,0.9584,0,0,0,0,0,0,0,0,0,0,0,0,0,0.9121,0.9124,0.9304,0.9305,0.9307,0.9418,0.942,0.9421,0.9456,0.9455,0.9454,0.9453,0.9575,0.958,0.9585,0,0,0,0,0,0,0,0,0,0,0,0,0,0.9214,0.9125,0.9304,0.9337,0.9341,0.9418,0.942,0.9422,0.9456,0.9455,0.9454,0.9453,0.9574,0.958,0.9585,0.9639,0,0,0.9603,0.9605,0,0,0,0,0,0,0,0,0.9209,0.9221,0.9331,0.9335,0.934,0.9422,0.94,0.9495,0.9456,0.9413,0.9454,0.9453,0.9526,0.9536,0.9559,0.9644,0.965,0.9603,0.9607,0.9609,0.9611,0,0,0,0,0,0,0,0.9202,0.9216,0.935,0.9332,0.9338,0.9348,0.9361,0.9418,0.9473,0.9416,0.9419,0.9432,0.9529,0.9554,0.9563,0.9651,0.9603,0.9608,0.9612,0.9614,0.9787,0.9788,0,0,0,0,0,0,0.919,0.9211,0.9346,0.9353,0.9271,0.9352,0.9366,0.9396,0.9473,0.9483,0.9432,0.9433,0.9544,0.9556,0.9567,0.9636,0.9609,0.9615,0.9618,0.9786,0.9787,0.9789,0,0,0,0,0,0,0.9185,0.9201,0.9341,0.9283,0.9301,0.9356,0.939,0.9399,0.9424,0.9485,0.9495,0.9448,0.9544,0.9559,0.962,0.964,0.9617,0.9622,0.9785,0.9786,0.9788,0.9772,0,0,0,0,0,0,0.918,0.92,0.9219,0.9283,0.9304,0.9391,0.9391,0.9402,0.9433,0.9435,0.9502,0.9512,0.9545,0.9612,0.9626,0.9648,0.9627,0.9783,0.9785,0.9787,0.9771,0.9773,0.9775,0,0,0,0,0,0.9173,0.9211,0.922,0.9236,0.9329,0.9392,0.9404,0.9439,0.9435,0.9456,0.9495,0.951,0.9635,0.9618,0.9634,0.9658,0.9782,0.9785,0.9787,0.977,0.9773,0.9775,0,0,0,0,0,0,0.915,0.922,0.9231,0.929,0.9334,0.9397,0.9425,0.944,0.9489,0.9489,0.9532,0.9547,0.9605,0.9638,0.9617,0.9714,0.9709,0.9715,0.9691,0.9694,0.9695,0.9687,0.9632,0,0,0,0,0,0.9152,0.9195,0.9254,0.9301,0.9322,0.937,0.9398,0.9421,0.947,0.949,0.9533,0.9581,0.9632,0.9664,0.9714,0.9775,0.9792,0.98,0.9802,0.9803,0.9808,0.9845,0.9849,0.9797,0.9797,0.9797,0,0,0.9156,0.9199,0.9224,0.9297,0.9335,0.938,0.9386,0.9433,0.9468,0.9498,0.9558,0.9591,0.9648,0.971,0.974,0.9739,0.9826,0.9806,0.9807,0.9812,0.9848,0.9853,0.9857,0.9799,0.9799,0.9798,0,0,0.9187,0.9223,0.9267,0.9304,0.9359,0.939,0.9401,0.9461,0.9484,0.9545,0.9568,0.9611,0.9696,0.9736,0.9768,0.9813,0.983,0.9829,0.9839,0.9874,0.9878,0.9882,0.99,0.9905,0.9833,0.9833,0.9833,0,0.9186,0.9254,0.9287,0.9334,0.9366,0.9392,0.9437,0.9472,0.9542,0.9565,0.9562,0.967,0.971,0.9782,0.9793,0.9817,0.9832,0.9822,0.9874,0.9878,0.9883,0.99,0.9907,0.9833,0.9833,0.9833,0.9833,0,0.925,0.9297,0.9325,0.939,0.9425,0.9471,0.9513,0.9545,0.9564,0.9596,0.9659,0.9708,0.9768,0.9786,0.9807,0.9862,0.986,0.9865,0.9862,0.9886,0.9904,0.9911,0.9832,0.9832,0.9832,0.9833,0,0,0.9272,0.9353,0.9364,0.9394,0.9457,0.9495,0.9542,0.9599,0.9626,0.9673,0.9715,0.9787,0.9792,0.9828,0.9853,0.9883,0.9918,0.9885,0.9887,0.9891,0.9983,0.998,0.9987,0.9928,0.993,0.9931,0.9979,0,0.9312,0.9396,0.9427,0.9497,0.9541,0.9567,0.9608,0.9652,0.9683,0.9727,0.9762,0.9812,0.9815,0.9836,0.9867,0.9907,0.9937,0.9903,0.997,0.9972,0.9957,0.9996,0.9993,1.0036,0.9986,0.9987,0.9988,0,0.9371,0.9417,0.949,0.9548,0.9568,0.9604,0.9659,0.97,0.9751,0.9772,0.9811,0.9834,0.9886,0.9878,0.9952,0.9929,0.9958,0.9981,0.9984,0.9993,0.9983,1.0008,1.0051,1.0058,0.9999,0.9998,0.9997,0,0.9381,0.9461,0.9515,0.954,0.9609,0.9634,0.9664,0.9714,0.9746,0.9795,0.9817,0.9872,0.9902,0.9945,0.9983,0.9973,1.0054,1.0049,1.0075,1.0074,1.0092,1.0091,1.0142,1.0108,1.0108,1.0108,1.0107,0,0.9423,0.9468,0.9521,0.9554,0.9605,0.9641,0.9691,0.9723,0.9768,0.981,0.9835,0.9874,0.9921,0.9966,0.9996,1.0054,1.0068,1.0087,1.0095,1.0086,1.0084,1.0107,1.0106,1.0109,1.0109,1.0109,1.0108,0,0.9444,0.9481,0.9542,0.9601,0.9617,0.9652,0.9704,0.9739,0.977,0.9823,0.9837,0.9888,0.9943,0.9984,1.0056,1.0076,1.0138,1.0146,1.0121,1.0125,1.0149,1.0147,1.0219,1.0231,1.0186,1.0187,1.0187,0,0.9469,0.9504,0.9566,0.9595,0.9625,0.9671,0.9704,0.9741,0.9774,0.9835,0.9863,0.9919,0.9966,1.0054,1.0098,1.0153,1.0163,1.0185,1.0172,1.0162,1.0166,1.0164,1.0169,1.0187,1.0187,1.0187,1.0188,0,0.9512,0.9528,0.9573,0.9625,0.9663,0.9706,0.975,0.9772,0.9818,0.9854,0.991,0.9946,1.0019,1.0075,1.0135,1.0168,1.0187,1.0191,1.02,1.0192,1.0177,1.0187,1.0127,1.019,1.0189,1.0189,1.0189,1.0189,0.9537,0.9569,0.9618,0.9668,0.9704,0.9744,0.978,0.9815,0.9861,0.9922,0.9941,0.9999,1.0051,1.0132,1.0166,1.0213,1.0214,1.0227,1.023,1.0233,1.0234,1.0167,1.0224,1.0224,1.0224,1.0224,1.0224,0,0.9582,0.9614,0.9659,0.9719,0.9759,0.9769,0.9818,0.9851,0.9901,0.9946,0.9992,1.0056,1.0111,1.0159,1.0216,1.0245,1.0255,1.0259,1.0259,1.0266,1.0229,1.0216,1.025,1.025,1.025,1.025,1.025,1.025,0.961,0.9665,0.9687,0.9761,0.9794,0.9849,0.9877,0.9914,0.9951,1.0021,1.0066,1.0096,1.0143,1.0204,1.0255,1.0268,1.0289,1.0291,1.0307,1.0272,1.0269,1.0266,1.0254,1.0295,1.0295,1.034,1.034,1.0341]},{"header":{"parameterUnit":"m.s-1","parameterCategory":1,"la1":30.2991,"la2":30.254,"lo1":-89.0895,"lo2":-89.0444,"dy":0.0017,"dx":0.0017,"nx":28,"ny":28,"refTime":"2025-05-26T21:00:00:Z","depth":0,"parameterNumber":3,"parameterNumberName":"V-component_of_WINDS"},"data":[0,0,0,0,0,0,0,0,0,0,0,0,0,0,0,0,0,0,0,0,0,0,0,0,0,0,0,0,0,0,0,0,0,0,0,0,0,0,0,0,0,0,0,0,0,0,0,0,0,0,0,0,0,0,0,0,0,0,3.7752,3.7751,0,3.7689,3.7688,3.7687,3.7645,3.7644,3.7644,3.7644,3.7573,3.7571,3.757,0,0,0,0,0,0,0,0,0,0,0,0,0,3.783,3.7829,3.7752,3.7751,3.775,3.7689,3.7688,3.7687,3.7645,3.7644,3.7644,3.7644,3.7574,3.7572,3.757,0,0,0,0,0,0,0,0,0,0,0,0,0,3.7784,3.7829,3.7752,3.7722,3.7719,3.7689,3.7688,3.7687,3.7645,3.7644,3.7644,3.7644,3.7574,3.7572,3.7569,3.7563,0,0,3.7562,3.7561,0,0,0,0,0,0,0,0,3.7787,3.7782,3.7727,3.7724,3.772,3.7674,3.769,3.7645,3.7645,3.7673,3.7644,3.7643,3.7607,3.7601,3.759,3.7559,3.7556,3.7562,3.756,3.7559,3.7559,0,0,0,0,0,0,0,3.779,3.7784,3.7727,3.7726,3.7722,3.771,3.7703,3.7681,3.7642,3.767,3.7667,3.766,3.7605,3.7593,3.7588,3.7555,3.7562,3.756,3.7558,3.7557,3.7515,3.7516,0,0,0,0,0,0,3.7799,3.7787,3.7729,3.7725,3.7753,3.7709,3.7701,3.7689,3.7643,3.7635,3.7661,3.7659,3.7597,3.7591,3.7586,3.7575,3.7559,3.7557,3.7556,3.7515,3.7516,3.7516,0,0,0,0,0,0,3.7801,3.7794,3.7731,3.7755,3.7746,3.7708,3.7695,3.7688,3.7677,3.7636,3.7628,3.7656,3.7597,3.7589,3.7569,3.7572,3.7556,3.7554,3.7515,3.7515,3.7516,3.7553,0,0,0,0,0,0,3.7803,3.7795,3.7793,3.7755,3.7745,3.7717,3.7695,3.7687,3.7673,3.767,3.7629,3.7622,3.7596,3.7573,3.7567,3.7568,3.7552,3.7514,3.7515,3.7516,3.7551,3.7555,3.7558,0,0,0,0,0,3.7806,3.7805,3.7794,3.7787,3.7742,3.7718,3.7712,3.7683,3.7674,3.7671,3.7645,3.7624,3.7573,3.7571,3.7564,3.7564,3.7514,3.7515,3.7515,3.755,3.7554,3.7557,0,0,0,0,0,0,3.7842,3.7799,3.7786,3.7773,3.775,3.7711,3.7706,3.7688,3.7665,3.7663,3.7626,3.7617,3.7601,3.7581,3.758,3.7555,3.7541,3.754,3.7569,3.7573,3.7576,3.7581,3.755,0,0,0,0,0,3.7849,3.7834,3.7797,3.7789,3.7778,3.7745,3.7733,3.7713,3.7686,3.7675,3.7648,3.7621,3.7599,3.7585,3.7562,3.7548,3.7538,3.7545,3.7548,3.7551,3.755,3.7541,3.7543,3.7519,3.7519,3.7518,0,0,3.7862,3.7837,3.7829,3.7795,3.7775,3.7759,3.7736,3.772,3.7707,3.7672,3.7652,3.7631,3.7598,3.7582,3.7573,3.7564,3.7555,3.7552,3.7555,3.7552,3.7542,3.7545,3.7547,3.7519,3.7519,3.7519,0,0,3.7877,3.7857,3.7848,3.7829,3.7799,3.7777,3.7775,3.7739,3.7724,3.7704,3.7678,3.7661,3.7624,3.7602,3.7586,3.7595,3.7574,3.7588,3.7604,3.7595,3.7597,3.7599,3.7601,3.7603,3.7588,3.7588,3.7588,0,3.7896,3.7873,3.7845,3.7832,3.7817,3.7787,3.7777,3.7759,3.7722,3.7712,3.7704,3.7657,3.7633,3.7611,3.7613,3.7601,3.7597,3.7592,3.76,3.7601,3.7602,3.7604,3.7605,3.759,3.759,3.759,3.7589,0,3.7898,3.7882,3.7878,3.7847,3.7832,3.782,3.7789,3.7777,3.7759,3.7737,3.7716,3.7687,3.7658,3.7651,3.7632,3.7626,3.7622,3.7607,3.7591,3.7607,3.7608,3.7608,3.7593,3.7592,3.7591,3.7591,0,0,3.7932,3.7887,3.7886,3.7871,3.7837,3.7823,3.7809,3.7784,3.7774,3.775,3.7736,3.7706,3.7693,3.7675,3.7653,3.7646,3.7654,3.7632,3.7631,3.7636,3.7644,3.7655,3.7657,3.7641,3.7641,3.7641,3.7647,0,3.7942,3.7918,3.7893,3.7877,3.7862,3.7834,3.7822,3.7798,3.7778,3.7761,3.7737,3.7716,3.7701,3.769,3.7681,3.7655,3.7655,3.7654,3.7626,3.7625,3.7635,3.7657,3.7668,3.7675,3.7647,3.7647,3.7647,0,3.795,3.793,3.7913,3.7881,3.7873,3.7863,3.7837,3.7822,3.7794,3.778,3.7761,3.7738,3.7721,3.7708,3.7683,3.7683,3.767,3.7655,3.7655,3.765,3.7637,3.7652,3.7677,3.7678,3.7648,3.7648,3.7648,0,3.7976,3.7945,3.7931,3.7919,3.7881,3.7874,3.7858,3.783,3.7817,3.7793,3.7784,3.7758,3.7744,3.7724,3.7695,3.7688,3.7672,3.7657,3.7658,3.7659,3.7655,3.7655,3.7677,3.7648,3.7648,3.7648,3.7648,0,3.7989,3.7979,3.7942,3.7933,3.7922,3.7893,3.7882,3.7862,3.7838,3.7824,3.7797,3.7784,3.7747,3.7729,3.7706,3.7688,3.7681,3.7668,3.7662,3.767,3.7672,3.766,3.7658,3.7648,3.7648,3.7648,3.7648,0,3.8015,3.799,3.7973,3.794,3.7931,3.7924,3.7894,3.7884,3.7863,3.7845,3.7839,3.7805,3.7782,3.7752,3.7718,3.7703,3.7688,3.7678,3.7698,3.7694,3.7697,3.7697,3.7711,3.7711,3.7683,3.7683,3.7684,0,3.8025,3.8017,3.7984,3.7974,3.7959,3.7942,3.7929,3.79,3.7887,3.7856,3.7849,3.7825,3.7804,3.7768,3.7739,3.7714,3.7703,3.771,3.7699,3.7708,3.7702,3.7703,3.7702,3.7712,3.7713,3.7713,3.7713,0,3.8044,3.8032,3.8015,3.7994,3.7979,3.796,3.794,3.7932,3.7899,3.7885,3.7863,3.7847,3.7815,3.7791,3.7762,3.7742,3.7722,3.7718,3.7716,3.7724,3.7736,3.7729,3.7704,3.7717,3.7717,3.7716,3.7716,3.7716,3.8062,3.8054,3.803,3.8011,3.7994,3.7976,3.7965,3.7943,3.7925,3.7898,3.7882,3.786,3.7832,3.7792,3.7774,3.7755,3.7747,3.7745,3.7745,3.7744,3.7747,3.774,3.775,3.7749,3.7749,3.7749,3.7749,0,3.8079,3.8062,3.8046,3.802,3.8005,3.799,3.7967,3.7955,3.7938,3.7915,3.7896,3.787,3.7847,3.7817,3.7791,3.7782,3.7772,3.7776,3.7776,3.7771,3.7756,3.7759,3.7784,3.7784,3.7784,3.7784,3.7784,3.7784,3.8086,3.8072,3.8058,3.8035,3.8018,3.7998,3.7986,3.7969,3.7951,3.7925,3.7906,3.7888,3.7861,3.7834,3.7811,3.7803,3.7794,3.7801,3.779,3.7776,3.7772,3.7769,3.7772,3.78,3.78,3.7806,3.7806,3.7806]}]]